User: anonymous   Login
Location: Kuffner-Sternwarte
(48.2130°N, 16.2960°E)
Time: 02:56:02
(UTC+01:00)
Language:

COROT - Orbit

View from above orbital plane
View from above orbital plane
View from above satellite
View from above satellite

Ground track
Ground track

The orbit data is extracted from the following two-line orbital elements,

1 29678U 06063A   19020.97013595 +.00000118 +00000-0 +24320-4 0  9993
2 29678 090.0338 017.5651 0199675 302.4346 055.7682 14.44241135624173
Epoch (UTC): 20 January 2019 23:16:59
Eccentricity: 0.0199675
inclination: 90.0338°
perigee height: 602 km
apogee height: 887 km
right ascension of ascending node: 17.5651°
argument of perigee: 302.4346°
revolutions per day: 14.44241135
mean anomaly at epoch: 55.7682°
orbit number at epoch: 62417

The dashed part of the orbit path shows where the satellite is in the earth's shadow,  

DLR